Time,TemperatureF,DewpointF,PressureIn,WindDirection,WindDirectionDegrees,WindSpeedMPH,WindSpeedGustMPH,Humidity,HourlyPrecipIn,Conditions,Clouds,dailyrainin,SoftwareType,DateUTC
2013-06-02 00:03:00,78.0,-99.9,30.12,ENE,65,5.0,14.0,-999,-99.99,,,-99.99,,2013-06-02 10:03:00,
2013-06-02 00:12:00,78.0,-99.9,30.11,East,80,4.0,8.0,-999,-99.99,,,-99.99,,2013-06-02 10:12:00,
2013-06-02 00:23:00,78.0,-99.9,30.11,ENE,59,6.0,11.0,-999,-99.99,,,-99.99,,2013-06-02 10:23:00,
2013-06-02 00:33:00,78.0,-99.9,30.11,ENE,70,5.0,9.0,-999,-99.99,,,-99.99,,2013-06-02 10:33:00,
2013-06-02 00:42:00,78.0,-99.9,30.11,East,85,4.0,8.0,-999,-99.99,,,-99.99,,2013-06-02 10:42:00,
2013-06-02 00:52:00,78.0,-99.9,30.10,ENE,66,3.0,7.0,-999,-99.99,,,-99.99,,2013-06-02 10:52:00,
2013-06-02 01:02:00,78.0,-99.9,30.10,ENE,66,8.0,17.0,-999,-99.99,,,-99.99,,2013-06-02 11:02:00,
2013-06-02 01:12:00,78.0,-99.9,30.10,East,95,9.0,19.0,-999,-99.99,,,-99.99,,2013-06-02 11:12:00,
2013-06-02 01:22:00,77.0,-99.9,30.10,East,97,6.0,10.0,-999,-99.99,,,-99.99,,2013-06-02 11:22:00,
2013-06-02 01:32:00,77.0,-99.9,30.10,ENE,66,6.0,11.0,-999,-99.99,,,-99.99,,2013-06-02 11:32:00,
2013-06-02 01:42:00,77.0,-99.9,30.09,ENE,75,4.0,9.0,-999,-99.99,,,-99.99,,2013-06-02 11:42:00,
2013-06-02 01:52:00,77.0,-99.9,30.09,ENE,70,3.0,10.0,-999,-99.99,,,-99.99,,2013-06-02 11:52:00,
2013-06-02 02:02:00,77.0,-99.9,30.09,East,92,5.0,8.0,-999,-99.99,,,-99.99,,2013-06-02 12:02:00,
2013-06-02 02:11:00,77.0,-99.9,30.09,ENE,73,6.0,14.0,-999,-99.99,,,-99.99,,2013-06-02 12:11:00,
2013-06-02 02:22:00,77.0,-99.9,30.09,ENE,64,4.0,9.0,-999,-99.99,,,-99.99,,2013-06-02 12:22:00,
2013-06-02 02:32:00,76.0,-99.9,30.09,East,80,2.0,6.0,-999,-99.99,,,-99.99,,2013-06-02 12:32:00,
2013-06-02 02:42:00,76.0,-99.9,30.09,ENE,75,4.0,6.0,-999,-99.99,,,-99.99,,2013-06-02 12:42:00,
2013-06-02 02:53:00,76.0,-99.9,30.08,East,80,3.0,6.0,-999,-99.99,,,-99.99,,2013-06-02 12:53:00,
2013-06-02 03:01:00,76.0,-99.9,30.08,SW,220,0.0,4.0,-999,-99.99,,,-99.99,,2013-06-02 13:01:00,
2013-06-02 03:12:00,76.0,-99.9,30.08,SW,220,0.0,4.0,-999,-99.99,,,-99.99,,2013-06-02 13:12:00,
2013-06-02 03:22:00,77.0,-99.9,30.07,ENE,75,6.0,12.0,-999,-99.99,,,-99.99,,2013-06-02 13:22:00,
2013-06-02 03:32:00,77.0,-99.9,30.07,ESE,108,4.0,10.0,-999,-99.99,,,-99.99,,2013-06-02 13:32:00,
2013-06-02 03:42:00,77.0,-99.9,30.06,NNE,19,2.0,6.0,-999,-99.99,,,-99.99,,2013-06-02 13:42:00,
2013-06-02 03:52:00,76.0,-99.9,30.06,North,10,3.0,6.0,-999,-99.99,,,-99.99,,2013-06-02 13:52:00,
2013-06-02 04:02:00,76.0,-99.9,30.06,NNW,333,3.0,6.0,-999,-99.99,,,-99.99,,2013-06-02 14:02:00,
2013-06-02 04:11:00,76.0,-99.9,30.06,NNW,333,3.0,6.0,-999,-99.99,,,-99.99,,2013-06-02 14:11:00,
2013-06-02 04:22:00,77.0,-99.9,30.07,East,96,9.0,15.0,-999,-99.99,,,-99.99,,2013-06-02 14:22:00,
2013-06-02 04:32:00,76.0,-99.9,30.06,NNE,27,3.0,8.0,-999,-99.99,,,-99.99,,2013-06-02 14:32:00,
2013-06-02 04:42:00,76.0,-99.9,30.06,NNE,27,5.0,8.0,-999,-99.99,,,-99.99,,2013-06-02 14:42:00,
2013-06-02 04:52:00,76.0,-99.9,30.06,NNE,25,1.0,5.0,-999,-99.99,,,-99.99,,2013-06-02 14:52:00,
2013-06-02 05:01:00,75.0,-99.9,30.07,ESE,102,1.0,7.0,-999,-99.99,,,-99.99,,2013-06-02 15:01:00,
2013-06-02 05:11:00,75.0,-99.9,30.06,NE,47,1.0,3.0,-999,-99.99,,,-99.99,,2013-06-02 15:11:00,
2013-06-02 05:22:00,75.0,-99.9,30.07,East,80,5.0,10.0,-999,-99.99,,,-99.99,,2013-06-02 15:22:00,
2013-06-02 05:33:00,76.0,-99.9,30.07,ENE,61,4.0,9.0,-999,-99.99,,,-99.99,,2013-06-02 15:33:00,
2013-06-02 05:43:00,76.0,-99.9,30.07,NNE,33,2.0,4.0,-999,-99.99,,,-99.99,,2013-06-02 15:43:00,
2013-06-02 05:53:00,76.0,-99.9,30.07,SSE,166,0.0,4.0,-999,-99.99,,,-99.99,,2013-06-02 15:53:00,
2013-06-02 06:03:00,76.0,-99.9,30.07,NNE,27,2.0,6.0,-999,-99.99,,,-99.99,,2013-06-02 16:03:00,
2013-06-02 06:13:00,76.0,-99.9,30.07,NE,43,2.0,6.0,-999,-99.99,,,-99.99,,2013-06-02 16:13:00,
2013-06-02 06:23:00,76.0,-99.9,30.07,ENE,76,3.0,8.0,-999,-99.99,,,-99.99,,2013-06-02 16:23:00,
2013-06-02 06:33:00,77.0,-99.9,30.07,ENE,60,4.0,8.0,-999,-99.99,,,-99.99,,2013-06-02 16:33:00,
2013-06-02 06:42:00,77.0,-99.9,30.07,NE,48,4.0,10.0,-999,-99.99,,,-99.99,,2013-06-02 16:42:00,
2013-06-02 06:53:00,78.0,-99.9,30.07,ESE,110,8.0,15.0,-999,-99.99,,,-99.99,,2013-06-02 16:53:00,
2013-06-02 07:02:00,78.0,-99.9,30.08,NE,41,1.0,3.0,-999,-99.99,,,-99.99,,2013-06-02 17:02:00,
2013-06-02 07:12:00,78.0,-99.9,30.08,NE,56,1.0,6.0,-999,-99.99,,,-99.99,,2013-06-02 17:12:00,
2013-06-02 07:23:00,78.0,-99.9,30.08,SE,134,3.0,13.0,-999,-99.99,,,-99.99,,2013-06-02 17:23:00,
2013-06-02 07:33:00,78.0,-99.9,30.09,ESE,113,1.0,5.0,-999,-99.99,,,-99.99,,2013-06-02 17:33:00,
2013-06-02 07:42:00,78.0,-99.9,30.09,NE,38,2.0,6.0,-999,-99.99,,,-99.99,,2013-06-02 17:42:00,
2013-06-02 07:52:00,78.0,-99.9,30.09,ENE,61,6.0,9.0,-999,-99.99,,,-99.99,,2013-06-02 17:52:00,
2013-06-02 08:02:00,78.0,-99.9,30.10,East,95,6.0,11.0,-999,-99.99,,,-99.99,,2013-06-02 18:02:00,
2013-06-02 08:11:00,79.0,-99.9,30.10,North,1,5.0,8.0,-999,-99.99,,,-99.99,,2013-06-02 18:11:00,
2013-06-02 08:22:00,79.0,-99.9,30.10,East,100,6.0,13.0,-999,-99.99,,,-99.99,,2013-06-02 18:22:00,
2013-06-02 08:32:00,79.0,-99.9,30.11,NE,53,7.0,11.0,-999,-99.99,,,-99.99,,2013-06-02 18:32:00,
2013-06-02 08:42:00,78.0,-99.9,30.10,NE,55,6.0,10.0,-999,-99.99,,,-99.99,,2013-06-02 18:42:00,
2013-06-02 08:52:00,79.0,-99.9,30.10,NE,56,4.0,8.0,-999,-99.99,,,-99.99,,2013-06-02 18:52:00,
2013-06-02 09:02:00,79.0,-99.9,30.10,East,91,2.0,6.0,-999,-99.99,,,-99.99,,2013-06-02 19:02:00,
2013-06-02 09:11:00,78.0,-99.9,30.11,East,96,4.0,13.0,-999,-99.99,,,-99.99,,2013-06-02 19:11:00,
2013-06-02 09:22:00,78.0,-99.9,30.11,NE,54,3.0,7.0,-999,-99.99,,,-99.99,,2013-06-02 19:22:00,
2013-06-02 09:32:00,79.0,-99.9,30.10,NE,51,5.0,10.0,-999,-99.99,,,-99.99,,2013-06-02 19:32:00,
2013-06-02 09:42:00,79.0,-99.9,30.10,ENE,67,2.0,6.0,-999,-99.99,,,-99.99,,2013-06-02 19:42:00,
2013-06-02 09:52:00,79.0,-99.9,30.10,ESE,108,7.0,11.0,-999,-99.99,,,-99.99,,2013-06-02 19:52:00,
2013-06-02 10:02:00,79.0,-99.9,30.10,ESE,104,5.0,9.0,-999,-99.99,,,-99.99,,2013-06-02 20:02:00,
2013-06-02 10:11:00,79.0,-99.9,30.10,ESE,105,10.0,16.0,-999,-99.99,,,-99.99,,2013-06-02 20:11:00,
2013-06-02 10:22:00,80.0,-99.9,30.10,East,94,4.0,13.0,-999,-99.99,,,-99.99,,2013-06-02 20:22:00,
2013-06-02 10:32:00,79.0,-99.9,30.10,ENE,59,6.0,13.0,-999,-99.99,,,-99.99,,2013-06-02 20:32:00,
2013-06-02 10:42:00,80.0,-99.9,30.10,East,79,3.0,13.0,-999,-99.99,,,-99.99,,2013-06-02 20:42:00,
2013-06-02 10:52:00,80.0,-99.9,30.10,NE,45,6.0,14.0,-999,-99.99,,,-99.99,,2013-06-02 20:52:00,
2013-06-02 11:02:00,81.0,-99.9,30.10,NE,44,6.0,13.0,-999,-99.99,,,-99.99,,2013-06-02 21:02:00,
2013-06-02 11:12:00,81.0,-99.9,30.10,ENE,66,7.0,18.0,-999,-99.99,,,-99.99,,2013-06-02 21:12:00,
2013-06-02 11:22:00,81.0,-99.9,30.10,NE,42,7.0,16.0,-999,-99.99,,,-99.99,,2013-06-02 21:22:00,
2013-06-02 11:33:00,81.0,-99.9,30.10,East,94,8.0,17.0,-999,-99.99,,,-99.99,,2013-06-02 21:33:00,
2013-06-02 11:43:00,82.0,-99.9,30.10,ENE,78,7.0,12.0,-999,-99.99,,,-99.99,,2013-06-02 21:43:00,
2013-06-02 11:53:00,81.0,-99.9,30.10,ENE,74,6.0,13.0,-999,-99.99,,,-99.99,,2013-06-02 21:53:00,
2013-06-02 12:03:00,82.0,-99.9,30.09,ESE,102,6.0,11.0,-999,-99.99,,,-99.99,,2013-06-02 22:03:00,
2013-06-02 12:12:00,82.0,-99.9,30.09,ESE,120,6.0,10.0,-999,-99.99,,,-99.99,,2013-06-02 22:12:00,
2013-06-02 12:23:00,82.0,-99.9,30.09,ENE,57,5.0,10.0,-999,-99.99,,,-99.99,,2013-06-02 22:23:00,
2013-06-02 12:33:00,81.0,-99.9,30.09,ESE,103,7.0,13.0,-999,-99.99,,,-99.99,,2013-06-02 22:33:00,
2013-06-02 12:42:00,81.0,-99.9,30.09,East,82,3.0,16.0,-999,-99.99,,,-99.99,,2013-06-02 22:42:00,
2013-06-02 12:53:00,82.0,-99.9,30.09,ESE,118,6.0,9.0,-999,-99.99,,,-99.99,,2013-06-02 22:53:00,
2013-06-02 13:02:00,81.0,-99.9,30.09,East,87,8.0,13.0,-999,-99.99,,,-99.99,,2013-06-02 23:02:00,
2013-06-02 13:12:00,80.0,-99.9,30.09,ENE,63,4.0,9.0,-999,-99.99,,,-99.99,,2013-06-02 23:12:00,
2013-06-02 13:22:00,81.0,-99.9,30.09,NE,51,8.0,16.0,-999,-99.99,,,-99.99,,2013-06-02 23:22:00,
2013-06-02 13:32:00,81.0,-99.9,30.09,ESE,106,9.0,16.0,-999,-99.99,,,-99.99,,2013-06-02 23:32:00,
2013-06-02 13:43:00,81.0,-99.9,30.09,NE,42,5.0,11.0,-999,-99.99,,,-99.99,,2013-06-02 23:43:00,
2013-06-02 13:53:00,81.0,-99.9,30.09,NE,45,6.0,10.0,-999,-99.99,,,-99.99,,2013-06-02 23:53:00,
2013-06-02 14:01:00,82.0,-99.9,30.08,ESE,106,8.0,13.0,-999,-99.99,,,-99.99,,2013-06-03 00:01:00,
2013-06-02 14:12:00,80.0,-99.9,30.08,ENE,65,5.0,16.0,-999,-99.99,,,-99.99,,2013-06-03 00:12:00,
2013-06-02 14:22:00,81.0,-99.9,30.07,NE,46,7.0,13.0,-999,-99.99,,,-99.99,,2013-06-03 00:22:00,
2013-06-02 14:32:00,81.0,-99.9,30.07,East,100,6.0,13.0,-999,-99.99,,,-99.99,,2013-06-03 00:32:00,
2013-06-02 14:42:00,81.0,-99.9,30.07,NE,41,8.0,14.0,-999,-99.99,,,-99.99,,2013-06-03 00:42:00,
2013-06-02 14:52:00,81.0,-99.9,30.07,ESE,110,6.0,11.0,-999,-99.99,,,-99.99,,2013-06-03 00:52:00,
2013-06-02 15:01:00,81.0,-99.9,30.07,East,101,6.0,13.0,-999,-99.99,,,-99.99,,2013-06-03 01:01:00,
2013-06-02 15:11:00,82.0,-99.9,30.07,NE,51,5.0,13.0,-999,-99.99,,,-99.99,,2013-06-03 01:11:00,
2013-06-02 15:21:00,81.0,-99.9,30.07,ENE,72,8.0,15.0,-999,-99.99,,,-99.99,,2013-06-03 01:21:00,
2013-06-02 15:32:00,80.0,-99.9,30.07,NE,53,8.0,14.0,-999,-99.99,,,-99.99,,2013-06-03 01:32:00,
2013-06-02 15:42:00,81.0,-99.9,30.06,ESE,121,10.0,17.0,-999,-99.99,,,-99.99,,2013-06-03 01:42:00,
2013-06-02 15:52:00,81.0,-99.9,30.06,NE,45,6.0,13.0,-999,-99.99,,,-99.99,,2013-06-03 01:52:00,
2013-06-02 16:02:00,81.0,-99.9,30.06,East,95,8.0,18.0,-999,-99.99,,,-99.99,,2013-06-03 02:02:00,
2013-06-02 16:12:00,81.0,-99.9,30.06,ENE,64,4.0,19.0,-999,-99.99,,,-99.99,,2013-06-03 02:12:00,
2013-06-02 16:22:00,81.0,-99.9,30.07,NE,50,7.0,16.0,-999,-99.99,,,-99.99,,2013-06-03 02:22:00,
2013-06-02 16:32:00,81.0,-99.9,30.06,NE,44,7.0,12.0,-999,-99.99,,,-99.99,,2013-06-03 02:32:00,
2013-06-02 16:42:00,81.0,-99.9,30.06,NE,44,9.0,15.0,-999,-99.99,,,-99.99,,2013-06-03 02:42:00,
2013-06-02 16:52:00,81.0,-99.9,30.06,ENE,70,5.0,12.0,-999,-99.99,,,-99.99,,2013-06-03 02:52:00,
2013-06-02 17:02:00,80.0,-99.9,30.06,NE,50,9.0,17.0,-999,-99.99,,,-99.99,,2013-06-03 03:02:00,
2013-06-02 17:12:00,81.0,-99.9,30.06,East,80,9.0,14.0,-999,-99.99,,,-99.99,,2013-06-03 03:12:00,
2013-06-02 17:22:00,81.0,-99.9,30.06,ENE,58,8.0,17.0,-999,-99.99,,,-99.99,,2013-06-03 03:22:00,
2013-06-02 17:33:00,81.0,-99.9,30.06,ENE,70,6.0,17.0,-999,-99.99,,,-99.99,,2013-06-03 03:33:00,
2013-06-02 17:43:00,81.0,-99.9,30.06,ENE,62,8.0,15.0,-999,-99.99,,,-99.99,,2013-06-03 03:43:00,
2013-06-02 17:53:00,80.0,-99.9,30.06,NE,49,9.0,15.0,-999,-99.99,,,-99.99,,2013-06-03 03:53:00,
2013-06-02 18:03:00,81.0,-99.9,30.06,ENE,64,7.0,13.0,-999,-99.99,,,-99.99,,2013-06-03 04:03:00,
2013-06-02 18:13:00,81.0,-99.9,30.06,ESE,105,4.0,14.0,-999,-99.99,,,-99.99,,2013-06-03 04:13:00,
2013-06-02 18:23:00,80.0,-99.9,30.06,ENE,71,7.0,13.0,-999,-99.99,,,-99.99,,2013-06-03 04:23:00,
2013-06-02 18:33:00,80.0,-99.9,30.06,NE,44,6.0,15.0,-999,-99.99,,,-99.99,,2013-06-03 04:33:00,
2013-06-02 18:42:00,80.0,-99.9,30.06,East,88,6.0,12.0,-999,-99.99,,,-99.99,,2013-06-03 04:42:00,
2013-06-02 18:53:00,80.0,-99.9,30.07,ENE,57,5.0,13.0,-999,-99.99,,,-99.99,,2013-06-03 04:53:00,
2013-06-02 19:02:00,80.0,-99.9,30.07,East,101,5.0,15.0,-999,-99.99,,,-99.99,,2013-06-03 05:02:00,
2013-06-02 19:13:00,79.0,-99.9,30.08,ESE,109,6.0,11.0,-999,-99.99,,,-99.99,,2013-06-03 05:13:00,
2013-06-02 19:22:00,78.0,-99.9,30.08,NE,48,7.0,11.0,-999,-99.99,,,-99.99,,2013-06-03 05:22:00,
2013-06-02 19:32:00,78.0,-99.9,30.08,ENE,68,6.0,15.0,-999,-99.99,,,-99.99,,2013-06-03 05:32:00,
2013-06-02 19:43:00,78.0,-99.9,30.08,NE,55,6.0,11.0,-999,-99.99,,,-99.99,,2013-06-03 05:43:00,
2013-06-02 19:52:00,79.0,-99.9,30.08,NE,52,7.0,14.0,-999,-99.99,,,-99.99,,2013-06-03 05:52:00,
2013-06-02 20:02:00,78.0,-99.9,30.08,East,86,6.0,14.0,-999,-99.99,,,-99.99,,2013-06-03 06:02:00,
2013-06-02 20:12:00,78.0,-99.9,30.09,NE,44,7.0,16.0,-999,-99.99,,,-99.99,,2013-06-03 06:12:00,
2013-06-02 20:22:00,78.0,-99.9,30.09,NE,55,11.0,20.0,-999,-99.99,,,-99.99,,2013-06-03 06:22:00,
2013-06-02 20:32:00,78.0,-99.9,30.09,ENE,65,6.0,15.0,-999,-99.99,,,-99.99,,2013-06-03 06:32:00,
2013-06-02 20:42:00,78.0,-99.9,30.10,NE,45,6.0,10.0,-999,-99.99,,,-99.99,,2013-06-03 06:42:00,
2013-06-02 20:53:00,78.0,-99.9,30.10,NE,48,5.0,11.0,-999,-99.99,,,-99.99,,2013-06-03 06:53:00,
2013-06-02 21:02:00,78.0,-99.9,30.11,East,90,5.0,13.0,-999,-99.99,,,-99.99,,2013-06-03 07:02:00,
2013-06-02 21:12:00,78.0,-99.9,30.11,NE,47,4.0,8.0,-999,-99.99,,,-99.99,,2013-06-03 07:12:00,
2013-06-02 21:22:00,78.0,-99.9,30.11,ENE,65,4.0,9.0,-999,-99.99,,,-99.99,,2013-06-03 07:22:00,
2013-06-02 21:32:00,78.0,-99.9,30.11,ENE,75,4.0,8.0,-999,-99.99,,,-99.99,,2013-06-03 07:32:00,
2013-06-02 21:42:00,78.0,-99.9,30.11,NE,53,7.0,10.0,-999,-99.99,,,-99.99,,2013-06-03 07:42:00,
2013-06-02 21:52:00,78.0,-99.9,30.11,ENE,76,3.0,19.0,-999,-99.99,,,-99.99,,2013-06-03 07:52:00,
2013-06-02 22:02:00,78.0,-99.9,30.11,ENE,64,4.0,6.0,-999,-99.99,,,-99.99,,2013-06-03 08:02:00,
2013-06-02 22:12:00,78.0,-99.9,30.11,NE,50,6.0,11.0,-999,-99.99,,,-99.99,,2013-06-03 08:12:00,
2013-06-02 22:22:00,78.0,-99.9,30.11,NNE,22,5.0,13.0,-999,-99.99,,,-99.99,,2013-06-03 08:22:00,
2013-06-02 22:32:00,78.0,-99.9,30.11,NE,53,7.0,17.0,-999,-99.99,,,-99.99,,2013-06-03 08:32:00,
2013-06-02 22:42:00,78.0,-99.9,30.11,ENE,68,8.0,14.0,-999,-99.99,,,-99.99,,2013-06-03 08:42:00,
2013-06-02 22:52:00,78.0,-99.9,30.11,NE,41,9.0,15.0,-999,-99.99,,,-99.99,,2013-06-03 08:52:00,
2013-06-02 23:02:00,78.0,-99.9,30.11,ENE,78,3.0,7.0,-999,-99.99,,,-99.99,,2013-06-03 09:02:00,
2013-06-02 23:12:00,78.0,-99.9,30.11,ENE,77,9.0,19.0,-999,-99.99,,,-99.99,,2013-06-03 09:12:00,
2013-06-02 23:22:00,78.0,-99.9,30.11,ESE,105,4.0,14.0,-999,-99.99,,,-99.99,,2013-06-03 09:22:00,
2013-06-02 23:33:00,78.0,-99.9,30.11,ENE,68,9.0,18.0,-999,-99.99,,,-99.99,,2013-06-03 09:33:00,
2013-06-02 23:43:00,78.0,-99.9,30.11,ENE,66,6.0,17.0,-999,-99.99,,,-99.99,,2013-06-03 09:43:00,
2013-06-02 23:53:00,78.0,-99.9,30.10,ENE,62,6.0,15.0,-999,-99.99,,,-99.99,,2013-06-03 09:53:00,